| time (UTC) | temp F | wind direction | speed knots | gust knots | rain 1hr in | rain 24hr in | rain mn in | humidity % | barometer mb |
| 20260505073047 | 54 | 20 | 0.0 | 2.6 | 0.14 | 0.30 | 0.30 | 91 | 1015.6 |
| 20260505071506 | 54 | 302 | 0.0 | 0.9 | 0.13 | 0.27 | 0.27 | 91 | 1015.7 |
| 20260505070007 | 54 | 43 | 0.0 | 0.9 | 0.13 | 0.24 | 0.24 | 91 | 1015.3 |
| 20260505064529 | 53 | 3 | 0.0 | 0.0 | 0.12 | 0.20 | 0.20 | 91 | 1015.2 |
| 20260505063035 | 53 | 13 | 0.0 | 0.9 | 0.10 | 0.16 | 0.16 | 90 | 1015.0 |
| 20260505061604 | 53 | 41 | 0.0 | 2.6 | 0.10 | 0.14 | 0.14 | 90 | 1015.1 |
| 20260505060002 | 53 | 359 | 0.0 | 2.6 | 0.08 | 0.11 | 0.11 | 89 | 1014.9 |
| 20260505054544 | 53 | 13 | 0.0 | 0.9 | 0.06 | 0.08 | 0.08 | 88 | 1014.9 |
| 20260505053045 | 54 | 295 | 0.0 | 3.5 | 0.05 | 0.06 | 0.06 | 88 | 1014.7 |
| 20260505051512 | 54 | 312 | 0.0 | 0.9 | 0.04 | 0.04 | 0.04 | 87 | 1014.4 |
| 20260505041514 | 56 | 312 | 0.9 | 10.4 | 0.00 | 0.00 | 0.00 | 79 | 1014.2 |
| 20260505040010 | 56 | 323 | 0.0 | 0.0 | 0.00 | 0.00 | 0.00 | 85 | 1014.1 |
| 20260505034527 | 56 | 325 | 0.0 | 0.0 | 0.00 | 0.00 | 0.00 | 86 | 1013.9 |
| 20260505033051 | 56 | 21 | 0.0 | 0.0 | 0.00 | 0.00 | 0.00 | 85 | 1013.9 |
| 20260505031512 | 56 | 21 | 0.0 | 0.0 | 0.00 | 0.00 | 0.00 | 85 | 1013.9 |
| 20260505030127 | 56 | 21 | 0.0 | 0.0 | 0.00 | 0.00 | 0.00 | 84 | 1014.1 |
| 20260505024515 | 56 | 21 | 0.0 | 0.0 | 0.00 | 0.00 | 0.00 | 84 | 1014.2 |
| 20260505023043 | 56 | 195 | 0.0 | 0.0 | 0.00 | 0.00 | 0.00 | 84 | 1014.6 |
| 20260505021604 | 56 | 195 | 0.0 | 0.0 | 0.00 | 0.00 | 0.00 | 83 | 1014.7 |
| 20260505020004 | 56 | 195 | 0.0 | 0.0 | 0.00 | 0.00 | 0.00 | 83 | 1014.8 |
| 20260505014538 | 57 | 195 | 0.0 | 0.0 | 0.00 | 0.00 | 0.00 | 82 | 1014.8 |
| 20260505013048 | 57 | 195 | 0.0 | 0.0 | 0.00 | 0.00 | 0.00 | 82 | 1015.0 |
| 20260505011512 | 57 | 195 | 0.0 | 0.0 | 0.00 | 0.00 | 0.00 | 82 | 1015.3 |
| 20260505010113 | 57 | 195 | 0.0 | 0.9 | 0.00 | 0.00 | 0.00 | 82 | 1015.4 |
| 20260505004550 | 57 | 195 | 0.0 | 0.0 | 0.00 | 0.00 | 0.00 | 82 | 1015.8 |
| 20260505003100 | 57 | 195 | 0.0 | 0.0 | 0.00 | 0.00 | 0.00 | 82 | 1016.0 |
| 20260505001519 | 57 | 195 | 0.0 | 0.0 | 0.00 | 0.00 | 0.00 | 81 | 1016.3 |
| 20260505000100 | 57 | 195 | 0.0 | 0.0 | 0.00 | 0.00 | 0.00 | 81 | 1016.5 |
| 20260504234515 | 57 | 195 | 0.0 | 0.0 | 0.00 | 0.00 | 0.00 | 80 | 1016.5 |
| 20260504233044 | 57 | 195 | 0.0 | 0.0 | 0.00 | 0.00 | 0.00 | 79 | 1016.7 |
| 20260504231505 | 56 | 195 | 0.0 | 0.0 | 0.00 | 0.00 | 0.00 | 81 | 1017.0 |
| 20260504230024 | 57 | 195 | 0.0 | 0.0 | 0.00 | 0.00 | 0.00 | 80 | 1017.1 |
| 20260504224552 | 57 | 195 | 0.0 | 0.0 | 0.00 | 0.00 | 0.00 | 80 | 1017.1 |
| 20260504223014 | 57 | 195 | 0.0 | 0.0 | 0.00 | 0.00 | 0.00 | 79 | 1017.3 |
| 20260504221537 | 57 | 195 | 0.0 | 0.0 | 0.00 | 0.00 | 0.00 | 79 | 1017.4 |
| 20260504220046 | 58 | 195 | 0.0 | 0.0 | 0.00 | 0.00 | 0.00 | 78 | 1017.6 |
| 20260504214600 | 58 | 195 | 0.0 | 0.0 | 0.00 | 0.00 | 0.00 | 77 | 1017.7 |
| 20260504213035 | 59 | 195 | 0.0 | 0.0 | 0.00 | 0.00 | 0.00 | 75 | 1017.8 |
| 20260504211536 | 59 | 195 | 0.0 | 0.0 | 0.00 | 0.00 | 0.00 | 73 | 1017.8 |
| 20260504210018 | 59 | 213 | 0.0 | 0.0 | 0.00 | 0.00 | 0.00 | 76 | 1017.8 |
| 20260504204534 | 59 | 213 | 0.0 | 0.0 | 0.00 | 0.00 | 0.00 | 76 | 1017.9 |
| 20260504203046 | 60 | 213 | 0.0 | 0.0 | 0.00 | 0.00 | 0.00 | 75 | 1017.9 |
| 20260504201510 | 60 | 213 | 0.0 | 0.0 | 0.00 | 0.00 | 0.00 | 73 | 1017.9 |
| 20260504200026 | 60 | 213 | 0.0 | 0.0 | 0.00 | 0.00 | 0.00 | 73 | 1017.9 |
| 20260504194553 | 61 | 213 | 0.0 | 0.0 | 0.00 | 0.00 | 0.00 | 70 | 1017.6 |
| 20260504193011 | 61 | 206 | 0.0 | 0.0 | 0.00 | 0.00 | 0.00 | 69 | 1017.6 |
| 20260504191529 | 62 | 206 | 0.0 | 0.0 | 0.00 | 0.00 | 0.00 | 70 | 1017.4 |
| 20260504190026 | 63 | 206 | 0.0 | 0.0 | 0.00 | 0.00 | 0.00 | 70 | 1017.4 |
| 20260504184544 | 64 | 206 | 0.0 | 0.0 | 0.00 | 0.00 | 0.00 | 68 | 1017.3 |
| 20260504183107 | 65 | 206 | 0.0 | 0.0 | 0.00 | 0.00 | 0.00 | 65 | 1017.2 |
| 20260504181517 | 65 | 206 | 0.0 | 0.0 | 0.00 | 0.00 | 0.00 | 65 | 1017.1 |
| 20260504180012 | 66 | 206 | 0.0 | 0.0 | 0.00 | 0.00 | 0.00 | 63 | 1017.1 |
| 20260504174512 | 67 | 230 | 0.0 | 0.0 | 0.00 | 0.00 | 0.00 | 61 | 1017.0 |
| 20260504173024 | 68 | 230 | 0.0 | 0.0 | 0.00 | 0.00 | 0.00 | 54 | 1017.2 |
| 20260504171555 | 68 | 230 | 0.0 | 0.0 | 0.00 | 0.00 | 0.00 | 55 | 1017.1 |
| 20260504081528 | 63 | 178 | 0.0 | 0.0 | 0.00 | 0.00 | 0.00 | 68 | 1019.6 |